Regional Weather Roundup
Issued by NWS

Home | Current Version | Previous Version | Graphics & Text | Print | Product List | Glossary Off
Versions: 1 2 3 4 5 6 7 8 9 10 11 12 13 14 15 16 17 18 19 20 21 22 23 24 25 26 27 28 29 30 31 32 33 34 35 36 37 38 39 40 41 42 43 44 45 46 47 48 49 50

000
ASUS43 KMKX 300521
RWRWI

WISCONSIN REGIONAL WEATHER ROUNDUP
NATIONAL WEATHER SERVICE MILWAUKEE/SULLIVAN WI
1200 AM CDT SAT MAY 30 2015

NOTE: "FAIR" INDICATES FEW OR NO CLOUDS BELOW 12,000 FEET WITH NO
SIGNIFICANT WEATHER AND/OR OBSTRUCTIONS TO VISIBILITY.

WIZ001-002-006>008-014>016-023>028-300600-
NORTHWEST WISCONSIN

CITY           SKY/WX    TMP DP  RH WIND       PRES   REMARKS
SUPERIOR ARPT  CLOUDY    51  42  72 N6        30.11R
ASHLAND        CLOUDY    53  46  77 N10       30.06R
HAYWARD        LGT RAIN  50  47  89 N7        30.07R
SIREN          CLOUDY    51  46  83 N9        30.09R
CUMBERLAND     LGT RAIN  50  46  87 N14G21    30.05R
RICE LAKE      CLOUDY    52  48  87 N13G20    30.06R
CHETEK         CLOUDY    53  53  98 N7G18     30.03R
LADYSMITH      LGT RAIN  56  54  93 N14G21    30.03R
EAU CLAIRE     LGT RAIN  58  55  90 N9        29.98R
MENOMONIE      LGT RAIN  56  56  99 N14       30.00R
NEW RICHMOND   DRIZZLE   53  51  95 N14G20    30.06R
OSCEOLA        LGT RAIN  53  51  95 N12G17    30.09R
$$

WIZ003>005-009-010-017-018-300600-
NORTH CENTRAL WISCONSIN

CITY           SKY/WX    TMP DP  RH WIND       PRES   REMARKS
MANITOWISH WTR LGT RAIN  52  52 100 N10G17    30.01S
ARBOR VITAE    LGT RAIN  57  55  95 N7        30.00S
WOODRUFF       LGT RAIN  57  55  95 N7        30.00S
RHINELANDER    LGT RAIN  55  53  93 N6        29.99R
EAGLE RIVER    RAIN      54  54 100 N8        29.99R
LAND O LAKES   LGT RAIN  55  54  97 N6        30.01R
PHILLIPS       DRIZZLE   53  52  96 N8        30.00R
TOMAHAWK       LGT RAIN  56  54  94 N6        29.98S
MEDFORD        RAIN      56  55  96 N13G18    29.96R
MERRILL        LGT RAIN  58  58 100 N10       29.96R
$$

WIZ029-030-035-036-043>047-300600-
CENTRAL WISCONSIN

CITY           SKY/WX    TMP DP  RH WIND       PRES   REMARKS
WAUSAU         LGT RAIN  61  60  97 N5        29.92R
MOSINEE        DRIZZLE   61  61 100 N5        29.94R
MARSHFIELD     LGT RAIN  63  59  87 NE8       29.93R
STEVENS POINT  LGT RAIN  60  59  96 NE5       29.93R
WAUPACA        LGT RAIN  67  67  98 CALM      29.91S
WAUTOMA        LGT RAIN  65  65 100 CALM      29.91S FOG
WISC RAPIDS    LGT RAIN  65  61  87 NE10      29.92S
CAMP DOUGLAS   DRIZZLE   64  64 100 CALM      29.91S FOG
$$

WIZ011>013-019>022-031-037>040-048>050-300600-
NORTHEAST WISCONSIN

CITY           SKY/WX    TMP DP  RH WIND       PRES   REMARKS
ANTIGO         LGT RAIN  59  59 100 N9        29.94F
SHAWANO        LGT RAIN  64  63  94 NE8       29.91S
OCONTO         CLOUDY    64  64 100 CALM      29.90R
STURGEON BAY   CLOUDY    63  59  88 NW5       29.92R
GREEN BAY      LGT RAIN  65  64  97 W3        29.91R FOG
MANITOWOC      LGT RAIN  65  63  93 NW9       29.91R
APPLETON       LGT RAIN  63  63 100 CALM      29.91F
CLINTONVILLE   LGT RAIN  64  63  94 NE7       29.91S
OSHKOSH        LGT RAIN  65  63  93 CALM      29.90F
$$

WIZ032>034-041-042-053>061-300600-
SOUTHWEST WISCONSIN

CITY           SKY/WX    TMP DP  RH WIND       PRES   REMARKS
LA CROSSE      CLOUDY    67  64  90 SE3       29.90S
SPARTA         HVY RAIN  64  63  96 CALM      29.92S
VIROQUA        CLOUDY    64  64 100 E5        29.93R
BOSCOBEL       CLOUDY    68  65  90 CALM      29.90S
PRAIRIE DU CHI LGT RAIN  68  63  85 W3        29.90R
PLATTEVILLE    CLOUDY    69  65  88 SW13      29.93S
$$

WIZ056-057-062-063-064-067-068-300600-
SOUTH CENTRAL WISCONSIN

CITY           SKY/WX    TMP DP  RH WIND       PRES   REMARKS
REEDSBURG      CLOUDY    64  64  99 CALM      29.92R
BARABOO/DELLS  LGT RAIN  64  63  94 CALM      29.92S
LONE ROCK      CLOUDY    67  65  93 CALM      29.91S
MINERAL POINT  CLOUDY    70  66  88 SW7       29.93R
MADISON        CLOUDY    67  63  87 N6        29.91R
MIDDLETON      CLOUDY    68  66  93 N3        29.92S
WATERTOWN      LGT RAIN N/A N/A N/A N7        29.91S
MONROE         CLOUDY    70  63  78 SW9       29.93S
JANESVILLE     CLOUDY    70  64  83 SW6       29.92R
$$

WIZ051-052-058>065-066-070>072-300600-
SOUTHEAST WISCONSIN

CITY           SKY/WX    TMP DP  RH WIND       PRES   REMARKS
MILWAUKEE      CLOUDY    72  64  76 SW8       29.90S
WAUKESHA       CLOUDY    68  63  83 SW7       29.92S
MILWAUKEE/TIMM CLOUDY    70  63  78 SW7       29.91R
RACINE         CLOUDY    71  64  78 SW8       29.92S
BURLINGTON     CLOUDY    67  63  87 SW6       29.92S
KENOSHA        CLOUDY    71  64  78 SW7       29.92S
FOND DU LAC    LGT RAIN  65  63  93 CALM      29.91S
SHEBOYGAN      CLOUDY    67  63  87 NW7       29.90R
WEST BEND      CLOUDY    68  63  83 NW12G21   29.93R
JUNEAU         CLOUDY    64  63  96 N6        29.93F
$$

LSZ147-162-300600-
LAKE SUPERIOR

STATION/POSITION TIME  TEMP    WIND        PRES    WAVE
                       AIR SEA DIR/SP/G            HT/PER
                 (UTC) (F)     (DEG/KT/KT) (MB)    (FT/S)
W MID LAKE BUOY  0450   43 37  330/ 10/ 14   N/A     1
DEVILS ISLAND    0500   48     320/ 13/ 13   N/A
PORT WING        0340   45     310/  6/  8   N/A
SAXON HARBOR     0400   53     310/  2/  5   N/A
$$

LMZ867-665-643>646-300600-
LAKE MICHIGAN

STATION/POSITION TIME  TEMP    WIND        PRES    WAVE
                       AIR SEA DIR/SP/G            HT/PER
                 (UTC) (F)     (DEG/KT/KT) (MB)    (FT/S)
CHAMBERS ISLAND  0400   58     320/  4/  6   N/A
N MID LAKE BUOY  0450   47 37  300/  4/  8   N/A     1/ 4
NORTHPORT PIER   0400   58     310/  3/  4   N/A
SISTER BAY       0418   62     360/ 11/ 15   N/A
ALGOMA LAKESHORE 0423          320/  1/  5   N/A
KEWAUNEE LAKESHO 0400   61      CALM  /  2   N/A
SHEBOYGAN LAKESH 0500   61     230/  3/  3   N/A
PORT WASHINGTON  0400   58     190/  8/ 10   N/A
ATWATER BUOY     0400   54     180/  8/ 10   N/A
MILWAUKEE LAKESH 0400   56     190/  2/  3   N/A
S MID LAKE BUOY  0450   48 38  200/ 10/ 10   N/A     0
KENOSHA   LAKESH 0500   72     220/  7/ 10   N/A
$$

TC  - TEMPERATURE IN CELSIUS
VSB - VISIBILITY IN STATUTE MILES
WCI - WIND CHILL INDEX
HX  - HEAT INDEX




USA.gov is the U.S. government's official web portal to all federal, state and local government web resources and services.